This is the latest recevied weather packets stored in our database for station/object N4QD-13. If no packets are shown the sender has not sent any weather packets the latest 10 day(s).
| Time | Temp. | Humidity | Pressure | Rain* | Wind** | Luminosity | Snow |
|---|---|---|---|---|---|---|---|
| 1777932930 | 22.78° C | 48% | 1011.8 hPa | 0 mm | - | 52 W/m² | - |
| 1777932627 | 22.78° C | 48% | 1011.5 hPa | 0 mm | - | 52 W/m² | - |
| 1777932323 | 22.78° C | 47% | 1011.8 hPa | 0 mm | - | 110 W/m² | - |
| 1777932020 | 22.78° C | 47% | 1011.5 hPa | 0 mm | - | 114 W/m² | - |
| 1777931717 | 22.78° C | 47% | 1011.6 hPa | 0 mm | - | 134 W/m² | - |
| 1777931414 | 22.78° C | 46% | 1011.7 hPa | 0 mm | - | 193 W/m² | - |
| 1777931110 | 23.33° C | 46% | 1011.6 hPa | 0 mm | - | 131 W/m² | - |
| 1777930806 | 23.33° C | 46% | 1011.5 hPa | 0 mm | - | 184 W/m² | - |
| 1777930503 | 23.33° C | 48% | 1011.5 hPa | 0 mm | - | 199 W/m² | - |
| 1777930201 | 22.78° C | 48% | 1011.5 hPa | 0 mm | - | 187 W/m² | - |
| 1777929896 | 22.78° C | 47% | 1011.4 hPa | 0 mm | - | 167 W/m² | - |
| 1777929594 | 23.33° C | 47% | 1011.7 hPa | 0 mm | - | 195 W/m² | - |
| 1777929290 | 23.33° C | 46% | 1011.6 hPa | 0 mm | - | 278 W/m² | - |
| 1777928988 | 22.78° C | 48% | 1011.4 hPa | 0 mm | - | 266 W/m² | - |
| 1777928684 | 22.78° C | 48% | 1011.4 hPa | 0 mm | - | 374 W/m² | - |
| 1777928381 | 23.33° C | 46% | 1011.4 hPa | 0 mm | - | 319 W/m² | - |
| 1777928079 | 23.33° C | 46% | 1011.6 hPa | 0 mm | - | 426 W/m² | - |
| 1777927777 | 23.89° C | 45% | 1011.7 hPa | 0 mm | - | 560 W/m² | - |
| 1777927475 | 23.89° C | 46% | 1011.5 hPa | 0 mm | - | 543 W/m² | - |
| 1777927174 | 23.33° C | 47% | 1011.6 hPa | 0 mm | - | 550 W/m² | - |
| 1777926871 | 23.33° C | 45% | 1011.8 hPa | 0 mm | - | 621 W/m² | - |
| 1777926567 | 23.33° C | 46% | 1011.5 hPa | 0 mm | - | 638 W/m² | - |
| 1777926264 | 23.33° C | 45% | 1011.6 hPa | 0 mm | - | 662 W/m² | - |
| 1777925960 | 23.89° C | 46% | 1011.7 hPa | 0 mm | - | 675 W/m² | - |
| 1777925658 | 23.89° C | 47% | 1011.6 hPa | 0 mm | - | 699 W/m² | - |
* Rain latest hour (hover to see other rain measurements)
** Current wind speed in m/s (hover to see current wind gust speed)